GW3251 Weather Reports


Display with metric or nautical units.
time (UTC)temp
F
wind
direction
speed
MPH
gust
MPH
rain 1hr
in
rain 24hr
in
rain mn
in
humidity
%
barometer
mb
20260508151553 67 0 0.0 8.0 0.00 0.00 0.00 86 1013.7
20260508151040 67 0 1.0 8.0 0.00 0.00 0.00 87 1013.7
20260508150537 67 0 0.0 7.0 0.00 0.00 0.00 87 1013.8
20260508145540 66 0 0.0 8.0 0.00 0.00 0.00 89 1014.0
20260508145036 66 0 0.0 6.0 0.00 0.00 0.00 89 1014.0
20260508144549 65 0 0.0 6.0 0.00 0.00 0.00 89 1014.0
20260508144039 65 0 0.0 6.0 0.00 0.00 0.00 88 1014.0
20260508143537 65 0 0.0 6.0 0.00 0.00 0.00 89 1013.9
20260508143105 65 0 0.0 1.0 0.00 0.00 0.00 89 1013.7
20260508142536 65 0 0.0 5.0 0.00 0.00 0.00 90 1013.9
20260508142038 64 0 0.0 5.0 0.00 0.00 0.00 90 1013.7
20260508141545 64 0 0.0 4.0 0.00 0.00 0.00 90 1013.7
20260508141037 64 0 0.0 9.0 0.00 0.00 0.00 91 1013.8
20260508140539 64 0 0.0 9.0 0.00 0.00 0.00 91 1014.0
20260508140059 63 0 0.0 9.0 0.00 0.00 0.00 91 1013.9
20260508135539 63 0 0.0 4.0 0.00 0.00 0.00 91 1013.9
20260508135038 63 0 0.0 7.0 0.00 0.00 0.00 91 1013.8
20260508134548 63 0 0.0 7.0 0.00 0.00 0.00 91 1013.9
20260508134037 63 0 0.0 0.0 0.00 0.00 0.00 91 1013.8
20260508133537 63 0 0.0 0.0 0.00 0.00 0.00 90 1014.0
20260508133044 63 0 0.0 7.0 0.00 0.00 0.00 90 1014.1
20260508132537 63 0 0.0 7.0 0.00 0.00 0.00 90 1014.0
20260508132038 63 0 0.0 3.0 0.00 0.00 0.00 90 1013.9
20260508131546 63 0 0.0 4.0 0.00 0.00 0.00 90 1014.0
20260508131038 63 0 0.0 6.0 0.00 0.00 0.00 90 1014.0
20260508130536 63 0 0.0 6.0 0.00 0.00 0.00 90 1014.1
20260508130047 62 0 0.0 6.0 0.00 0.00 0.00 89 1014.0
20260508125538 62 0 0.0 5.0 0.00 0.00 0.00 89 1013.9
20260508125037 62 0 0.0 5.0 0.00 0.00 0.00 89 1014.0
20260508124548 62 0 0.0 0.0 0.00 0.00 0.00 89 1014.1
20260508124037 62 0 0.0 4.0 0.00 0.00 0.00 89 1014.2
20260508123537 62 0 0.0 4.0 0.00 0.00 0.00 88 1014.1
20260508123047 63 0 0.0 10.0 0.00 0.00 0.00 88 1014.2
20260508122537 63 0 0.0 10.0 0.00 0.00 0.00 88 1014.0
20260508122037 63 0 0.0 10.0 0.00 0.00 0.00 87 1014.1
20260508121552 63 0 2.0 10.0 0.00 0.00 0.00 87 1013.8
20260508121037 63 42 0.0 6.0 0.00 0.00 0.00 87 1013.8
20260508120536 63 0 0.0 6.0 0.00 0.00 0.00 86 1013.8
20260508120049 63 0 0.0 7.0 0.00 0.00 0.00 86 1014.1
20260508115538 63 0 0.0 7.0 0.00 0.00 0.00 86 1014.1
20260508115037 63 0 0.0 5.0 0.00 0.00 0.00 86 1014.1
20260508114549 63 0 0.0 5.0 0.00 0.00 0.00 85 1014.3
20260508114037 63 30 0.0 5.0 0.00 0.00 0.00 85 1014.1
20260508113539 63 0 0.0 5.0 0.00 0.00 0.00 85 1014.0
20260508113049 63 0 0.0 5.0 0.00 0.00 0.00 85 1013.9
20260508112536 63 0 0.0 0.0 0.00 0.00 0.00 85 1014.0
20260508112040 63 0 0.0 0.0 0.00 0.00 0.00 85 1013.7
20260508111601 63 0 0.0 0.0 0.00 0.00 0.00 85 1013.5
20260508111037 63 0 0.0 0.0 0.00 0.00 0.00 85 1013.4
20260508110537 63 0 0.0 0.0 0.00 0.00 0.00 85 1013.3
20260508110049 63 0 0.0 0.0 0.00 0.00 0.00 85 1013.2
20260508105537 63 0 0.0 4.0 0.00 0.00 0.00 85 1012.9
20260508105037 63 0 0.0 4.0 0.00 0.00 0.00 85 1013.1
20260508104548 63 0 0.0 4.0 0.00 0.00 0.00 85 1013.3
20260508104038 63 0 0.0 4.0 0.00 0.00 0.00 85 1013.5
20260508103537 63 41 0.0 8.0 0.00 0.00 0.00 85 1013.6
20260508103052 63 0 0.0 8.0 0.00 0.00 0.00 85 1013.7
20260508102536 63 0 0.0 6.0 0.00 0.00 0.00 85 1013.8
20260508102037 63 0 0.0 6.0 0.00 0.00 0.00 85 1013.9
20260508101550 63 0 1.0 6.0 0.00 0.00 0.00 85 1013.7
20260508101039 63 0 0.0 4.0 0.00 0.00 0.00 85 1013.6
20260508100539 63 62 0.0 3.0 0.00 0.00 0.00 85 1013.7
20260508100047 63 0 0.0 2.0 0.00 0.00 0.00 85 1013.6
20260508095537 63 0 0.0 4.0 0.00 0.00 0.00 85 1013.7
20260508095038 63 0 0.0 5.0 0.00 0.00 0.00 85 1013.5
20260508094550 63 0 0.0 5.0 0.00 0.00 0.00 85 1013.5
20260508094037 63 0 0.0 5.0 0.00 0.00 0.00 85 1013.8
20260508093537 63 0 0.0 6.0 0.00 0.00 0.00 85 1013.9
20260508093049 63 0 0.0 6.0 0.00 0.00 0.00 85 1013.8
20260508092537 63 0 0.0 6.0 0.00 0.00 0.00 85 1013.6
20260508092040 63 0 0.0 1.0 0.00 0.00 0.00 85 1013.6
20260508091606 63 0 0.0 5.0 0.00 0.00 0.00 85 1013.6
20260508091037 63 0 0.0 6.0 0.00 0.00 0.00 85 1013.5
20260508090537 63 0 0.0 6.0 0.00 0.00 0.00 85 1013.3
20260508090047 63 46 0.0 5.0 0.00 0.00 0.00 85 1013.3
20260508085538 62 0 0.0 2.0 0.00 0.00 0.00 85 1013.4
20260508085037 62 0 0.0 2.0 0.00 0.00 0.00 85 1013.5
20260508084557 63 0 0.0 6.0 0.00 0.00 0.00 85 1013.4
20260508084038 62 0 0.0 6.0 0.00 0.00 0.00 85 1013.4
20260508083537 62 0 0.0 6.0 0.00 0.00 0.00 85 1013.6
20260508083055 62 0 0.0 5.0 0.00 0.00 0.00 85 1013.3
20260508082537 62 0 0.0 5.0 0.00 0.00 0.00 85 1012.9
20260508082037 62 0 0.0 4.0 0.00 0.00 0.00 85 1013.1
20260508081550 62 0 0.0 4.0 0.00 0.00 0.00 85 1013.6
20260508081038 62 0 0.0 4.0 0.00 0.00 0.00 85 1013.5
20260508080539 62 55 0.0 2.0 0.00 0.00 0.00 86 1013.5
20260508080100 62 0 0.0 0.0 0.00 0.00 0.00 86 1013.7
20260508075537 62 0 0.0 0.0 0.00 0.00 0.00 86 1014.0
20260508075036 62 0 0.0 1.0 0.00 0.00 0.00 86 1014.1
20260508074544 62 0 0.0 1.0 0.00 0.00 0.00 86 1014.2
20260508074037 62 0 0.0 5.0 0.00 0.00 0.00 86 1014.4
20260508073537 62 0 0.0 5.0 0.00 0.00 0.00 86 1014.2
20260508073055 62 0 0.0 5.0 0.00 0.00 0.00 86 1014.1
20260508072538 62 0 0.0 3.0 0.00 0.00 0.00 86 1014.2
20260508072037 62 0 0.0 3.0 0.00 0.00 0.00 86 1014.3
20260508071551 62 0 0.0 5.0 0.00 0.00 0.00 86 1014.2
20260508071037 62 0 0.0 6.0 0.00 0.00 0.00 86 1014.5
20260508070537 62 0 1.0 6.0 0.00 0.00 0.00 86 1014.7
20260508070054 62 0 0.0 0.0 0.00 0.00 0.00 87 1014.5
20260508065536 62 0 0.0 0.0 0.00 0.00 0.00 86 1014.5
20260508065039 62 0 0.0 0.0 0.00 0.00 0.00 86 1014.3
20260508064555 62 0 0.0 5.0 0.00 0.00 0.00 86 1014.1
20260508064037 62 0 0.0 5.0 0.00 0.00 0.00 86 1014.3
20260508063538 62 0 0.0 7.0 0.00 0.00 0.00 86 1014.3
20260508063048 62 0 0.0 7.0 0.00 0.00 0.00 86 1014.2
20260508062537 62 0 0.0 8.0 0.00 0.00 0.00 86 1014.6
20260508062037 62 0 0.0 8.0 0.00 0.00 0.00 86 1014.4
20260508061552 62 0 1.0 8.0 0.00 0.00 0.00 85 1014.0
20260508061040 62 0 0.0 6.0 0.00 0.00 0.00 85 1014.0
20260508060536 62 0 0.0 6.0 0.00 0.00 0.00 85 1014.1
20260508060049 62 0 0.0 6.0 0.00 0.00 0.00 85 1014.4
20260508055537 62 0 0.0 4.0 0.00 0.00 0.00 85 1014.6
20260508055037 62 0 0.0 2.0 0.00 0.00 0.00 85 1014.6
20260508054555 62 0 0.0 0.0 0.00 0.00 0.00 85 1014.5
20260508054039 62 0 0.0 1.0 0.00 0.00 0.00 85 1014.6
20260508053538 62 0 0.0 5.0 0.00 0.00 0.00 85 1014.4
20260508053052 62 0 0.0 5.0 0.00 0.00 0.00 85 1014.1
20260508052538 62 0 0.0 5.0 0.00 0.00 0.00 85 1014.5
20260508052040 62 0 0.0 1.0 0.00 0.00 0.00 85 1014.8
20260508051546 62 0 0.0 3.0 0.00 0.00 0.00 85 1014.2
20260508051038 62 0 0.0 3.0 0.00 0.00 0.00 85 1014.7
20260508050538 62 0 0.0 1.0 0.00 0.00 0.00 85 1015.1
20260508050101 62 0 0.0 1.0 0.00 0.00 0.00 85 1015.0
20260508045537 62 0 0.0 0.0 0.00 0.00 0.00 85 1015.0
20260508045037 62 0 0.0 0.0 0.00 0.00 0.00 84 1014.9
20260508044548 62 0 0.0 0.0 0.00 0.00 0.00 85 1014.6
20260508044037 62 0 0.0 0.0 0.00 0.00 0.00 84 1014.7
20260508043536 62 0 0.0 0.0 0.00 0.00 0.00 84 1014.4
20260508043045 63 0 0.0 0.0 0.00 0.00 0.00 85 1014.3
20260508042537 62 0 0.0 0.0 0.00 0.00 0.00 84 1014.9
20260508042036 63 0 0.0 0.0 0.00 0.00 0.00 84 1015.2
20260508041546 63 0 0.0 2.0 0.00 0.00 0.00 84 1015.1
20260508041037 63 0 0.0 2.0 0.00 0.00 0.00 84 1014.7
20260508040537 63 0 0.0 5.0 0.00 0.00 0.00 84 1014.6
20260508040057 63 0 0.0 5.0 0.00 0.00 0.00 84 1014.7
20260508035537 63 0 0.0 5.0 0.00 0.00 0.00 84 1014.6
20260508035037 63 0 0.0 0.0 0.00 0.00 0.00 84 1014.8
20260508034552 63 0 0.0 0.0 0.00 0.00 0.00 84 1014.6
20260508034038 63 0 0.0 0.0 0.00 0.00 0.00 84 1014.4
20260508033537 63 0 0.0 0.0 0.00 0.00 0.00 83 1014.2
20260508033054 63 0 0.0 5.0 0.00 0.00 0.00 83 1014.2
20260508032537 63 0 0.0 5.0 0.00 0.00 0.00 83 1014.1
20260508032036 63 0 0.0 0.0 0.00 0.00 0.00 83 1014.2
20260508031548 63 0 0.0 4.0 0.00 0.00 0.00 83 1014.0
20260508031039 63 0 0.0 4.0 0.00 0.00 0.00 83 1013.9
20260508030537 63 0 0.0 3.0 0.00 0.00 0.00 83 1013.6
20260508030052 63 0 0.0 3.0 0.00 0.00 0.00 83 1013.7
20260508025537 63 0 0.0 3.0 0.00 0.00 0.00 83 1014.0
20260508025036 63 0 0.0 0.0 0.00 0.00 0.00 83 1014.3
20260508024545 63 0 0.0 0.0 0.00 0.00 0.00 83 1014.3
20260508024037 63 0 0.0 0.0 0.00 0.00 0.00 82 1014.7
20260508023537 63 0 0.0 0.0 0.00 0.00 0.00 82 1014.8
20260508023046 63 0 0.0 0.0 0.00 0.00 0.00 81 1014.9
20260508022537 63 0 0.0 6.0 0.00 0.00 0.00 81 1014.6
20260508022037 63 0 0.0 6.0 0.00 0.00 0.00 81 1014.2
20260508021548 63 0 0.0 6.0 0.00 0.00 0.00 81 1014.1
20260508021037 63 0 0.0 6.0 0.00 0.00 0.00 81 1014.1
20260508020537 63 0 0.0 6.0 0.00 0.00 0.00 81 1014.2
20260508020053 63 0 0.0 1.0 0.00 0.00 0.00 81 1014.1
20260508015537 64 0 0.0 0.0 0.00 0.00 0.00 81 1014.1
20260508015037 64 0 0.0 0.0 0.00 0.00 0.00 81 1014.3
20260508014547 64 0 0.0 6.0 0.00 0.00 0.00 81 1014.4
20260508014040 64 0 0.0 6.0 0.00 0.00 0.00 81 1014.6
20260508013537 64 0 0.0 0.0 0.00 0.00 0.00 80 1014.6
20260508013046 64 0 0.0 4.0 0.00 0.00 0.00 80 1014.8
20260508012537 64 0 0.0 4.0 0.00 0.00 0.00 79 1014.8
20260508012037 64 0 0.0 5.0 0.00 0.00 0.00 79 1014.7
20260508011548 64 0 0.0 5.0 0.00 0.00 0.00 79 1014.9
20260508011039 64 29 0.0 5.0 0.00 0.00 0.00 79 1014.7
20260508010537 64 0 0.0 5.0 0.00 0.00 0.00 78 1014.9
20260508010054 64 0 0.0 6.0 0.00 0.00 0.00 78 1014.9
20260508005537 65 0 0.0 8.0 0.00 0.00 0.00 78 1014.7
20260508005037 65 0 0.0 8.0 0.00 0.00 0.00 77 1014.7
20260508004551 65 0 0.0 6.0 0.00 0.00 0.00 77 1014.6
20260508004039 65 0 0.0 4.0 0.00 0.00 0.00 77 1014.5
20260508003540 65 0 0.0 8.0 0.00 0.00 0.00 76 1014.3
20260508003051 65 0 0.0 8.0 0.00 0.00 0.00 76 1014.6
20260508002537 65 0 0.0 8.0 0.00 0.00 0.00 77 1014.8
20260508002037 65 0 0.0 8.0 0.00 0.00 0.00 77 1014.6
20260508001546 66 0 0.0 0.0 0.00 0.00 0.00 76 1014.9
20260508001037 66 0 0.0 5.0 0.00 0.00 0.00 76 1015.2
20260508000537 66 0 0.0 5.0 0.00 0.00 0.00 75 1015.1
20260508000057 66 0 0.0 5.0 0.00 0.00 0.00 75 1015.3
20260507235537 66 0 0.0 0.0 0.00 0.00 0.00 75 1015.1
20260507235040 66 0 0.0 6.0 0.00 0.00 0.00 76 1015.2
20260507234554 66 0 0.0 6.0 0.00 0.00 0.00 74 1015.1
20260507234041 66 0 0.0 5.0 0.00 0.00 0.00 74 1015.1
20260507233537 67 0 0.0 5.0 0.00 0.00 0.00 75 1014.9
20260507233112 67 16 0.0 5.0 0.00 0.00 0.00 75 1015.3
20260507232537 67 0 0.0 7.0 0.00 0.00 0.00 74 1015.0
20260507232036 67 0 0.0 10.0 0.00 0.00 0.00 73 1014.9
20260507231548 67 0 0.0 10.0 0.00 0.00 0.00 72 1014.7
20260507231036 67 0 1.0 8.0 0.00 0.00 0.00 73 1014.9
20260507230538 67 0 0.0 12.0 0.00 0.00 0.00 73 1015.1
20260507230051 67 0 0.0 12.0 0.00 0.00 0.00 72 1015.1
20260507225538 67 0 0.0 12.0 0.00 0.00 0.00 72 1015.3
20260507225039 67 20 2.0 12.0 0.00 0.00 0.00 72 1015.4
20260507224550 67 0 1.0 10.0 0.00 0.00 0.00 74 1015.5
20260507224037 67 0 0.0 10.0 0.00 0.00 0.00 73 1015.3
20260507223538 67 0 0.0 9.0 0.00 0.00 0.00 75 1015.2
20260507223102 67 0 0.0 9.0 0.00 0.00 0.00 76 1015.3
20260507222536 67 32 1.0 9.0 0.00 0.00 0.00 75 1015.2
20260507222037 68 0 0.0 10.0 0.00 0.00 0.00 75 1015.2
20260507221549 68 0 1.0 10.0 0.00 0.00 0.00 71 1015.2
20260507221037 69 0 0.0 6.0 0.00 0.00 0.00 72 1015.5
20260507220537 69 0 0.0 6.0 0.00 0.00 0.00 71 1015.4
20260507220050 69 0 0.0 12.0 0.00 0.00 0.00 72 1015.3
20260507215537 69 0 0.0 12.0 0.00 0.00 0.00 70 1015.2
20260507215036 69 39 1.0 12.0 0.00 0.00 0.00 70 1014.9
20260507214553 69 53 1.0 8.0 0.00 0.00 0.00 72 1014.8
20260507214037 68 0 0.0 8.0 0.00 0.00 0.00 71 1015.4
20260507213539 68 352 0.0 2.0 0.00 0.00 0.00 73 1015.3
20260507213049 68 0 0.0 6.0 0.00 0.00 0.00 73 1015.3
20260507212541 68 0 0.0 7.0 0.00 0.00 0.00 73 1015.1
20260507212040 68 0 0.0 7.0 0.00 0.00 0.00 72 1015.2
20260507211601 68 0 0.0 0.0 0.00 0.00 0.00 73 1014.9
20260507211037 68 0 0.0 10.0 0.00 0.00 0.00 72 1014.9
20260507210539 68 0 1.0 12.0 0.00 0.00 0.00 71 1014.8
20260507210111 68 0 0.0 12.0 0.00 0.00 0.00 72 1014.9
20260507205539 68 0 1.0 10.0 0.00 0.00 0.00 72 1015.0
20260507205037 69 33 1.0 10.0 0.00 0.00 0.00 71 1014.9
20260507204551 69 42 0.0 9.0 0.00 0.00 0.00 71 1015.2
20260507204036 69 0 1.0 11.0 0.00 0.00 0.00 70 1015.4
20260507203537 70 0 0.0 12.0 0.00 0.00 0.00 68 1015.4
20260507203050 70 75 1.0 14.0 0.00 0.00 0.00 68 1015.5
20260507202536 70 51 1.0 14.0 0.00 0.00 0.00 69 1015.6
20260507202037 71 0 1.0 14.0 0.00 0.00 0.00 68 1015.6
20260507201548 70 0 1.0 13.0 0.00 0.00 0.00 69 1015.7
20260507201037 70 0 1.0 13.0 0.00 0.00 0.00 68 1015.9
20260507200540 70 0 3.0 13.0 0.00 0.00 0.00 69 1015.9
20260507200056 70 0 1.0 13.0 0.00 0.00 0.00 69 1016.0
20260507195541 70 0 4.0 13.0 0.00 0.00 0.00 68 1016.0
20260507195039 71 23 2.0 11.0 0.00 0.00 0.00 67 1016.0
20260507194553 72 0 1.0 12.0 0.00 0.00 0.00 67 1016.2
20260507194036 71 0 1.0 12.0 0.00 0.00 0.00 68 1016.0
20260507193540 72 0 2.0 11.0 0.00 0.00 0.00 67 1016.1
20260507193047 73 0 3.0 12.0 0.00 0.00 0.00 65 1016.3
20260507192536 73 5 1.0 12.0 0.00 0.00 0.00 66 1016.1
20260507192036 72 81 3.0 13.0 0.00 0.00 0.00 67 1015.7
20260507191549 73 0 0.0 14.0 0.00 0.00 0.00 68 1015.9
20260507191037 70 44 2.0 14.0 0.00 0.00 0.00 69 1015.8
20260507190537 70 0 0.0 11.0 0.00 0.00 0.00 69 1015.7
20260507190053 71 0 2.0 11.0 0.00 0.00 0.00 69 1015.9
20260507185537 72 0 3.0 10.0 0.00 0.00 0.00 66 1016.3
20260507185037 71 0 0.0 11.0 0.00 0.00 0.00 68 1016.4
20260507184547 71 0 0.0 12.0 0.00 0.00 0.00 68 1016.7
20260507184039 71 0 3.0 12.0 0.00 0.00 0.00 68 1016.6
20260507183536 71 352 4.0 11.0 0.00 0.00 0.00 68 1016.2
20260507183107 71 0 0.0 11.0 0.00 0.00 0.00 68 1016.2
20260507182537 71 51 2.0 11.0 0.00 0.00 0.00 68 1016.8
20260507182037 70 0 0.0 13.0 0.00 0.00 0.00 71 1017.1
20260507181551 70 0 2.0 13.0 0.00 0.00 0.00 68 1017.4
20260507181038 70 0 0.0 8.0 0.00 0.00 0.00 71 1017.5
20260507180537 69 0 0.0 6.0 0.00 0.00 0.00 70 1017.7
20260507180046 70 0 0.0 6.0 0.00 0.00 0.00 69 1017.9
20260507175537 69 0 0.0 7.0 0.00 0.01 0.00 70 1017.9
20260507175037 69 0 0.0 11.0 0.00 0.01 0.00 70 1017.3
20260507174554 69 0 0.0 13.0 0.00 0.01 0.00 71 1016.9
20260507174042 69 46 1.0 13.0 0.00 0.01 0.00 71 1017.3
20260507173537 68 46 2.0 12.0 0.00 0.01 0.00 73 1016.9
20260507173105 67 0 5.0 12.0 0.00 0.01 0.00 73 1017.0
20260507172537 67 34 0.0 13.0 0.00 0.01 0.00 73 1017.0
20260507172037 67 0 2.0 13.0 0.00 0.01 0.00 72 1017.3
20260507171547 67 0 3.0 11.0 0.00 0.01 0.00 74 1017.2
20260507171037 67 0 1.0 9.0 0.00 0.01 0.00 74 1017.6
20260507170537 67 344 1.0 9.0 0.00 0.01 0.00 74 1017.8
20260507170047 66 0 0.0 11.0 0.00 0.01 0.00 75 1017.5
20260507165536 65 0 1.0 11.0 0.00 0.01 0.00 75 1017.6
20260507165039 65 0 1.0 11.0 0.00 0.01 0.00 75 1017.5
20260507164606 64 0 2.0 12.0 0.00 0.01 0.00 76 1017.6
20260507164038 65 0 4.0 12.0 0.00 0.01 0.00 76 1017.9
20260507163540 65 347 0.0 9.0 0.00 0.01 0.00 75 1018.0
20260507163052 66 0 2.0 9.0 0.00 0.01 0.00 74 1018.1
20260507162538 66 0 2.0 9.0 0.00 0.01 0.00 75 1018.0
20260507162037 66 0 2.0 10.0 0.00 0.01 0.00 76 1017.8
20260507161556 65 0 3.0 11.0 0.00 0.01 0.00 76 1017.5
20260507161039 65 24 2.0 13.0 0.00 0.01 0.00 76 1017.5
20260507160537 65 38 3.0 13.0 0.00 0.01 0.00 76 1017.5
20260507160047 65 0 0.0 11.0 0.00 0.01 0.00 78 1017.6
20260507155537 64 338 2.0 11.0 0.00 0.01 0.00 78 1017.8
20260507155037 65 28 3.0 10.0 0.00 0.01 0.00 76 1017.6
20260507154551 66 0 1.0 12.0 0.00 0.01 0.00 76 1017.7
20260507154037 67 0 0.0 12.0 0.00 0.01 0.00 74 1017.6
20260507153540 65 34 3.0 12.0 0.00 0.01 0.00 77 1017.1
20260507153046 63 0 2.0 12.0 0.00 0.01 0.00 80 1016.8
20260507152539 62 40 3.0 10.0 0.00 0.01 0.00 81 1017.0
20260507152041 61 0 0.0 10.0 0.00 0.01 0.00 82 1017.4